Tracking 20041 objects as of 22-Nov-2019
Live streaming from Space Station
objects crossing your sky now

THOR ABLESTAR R/B

Track THOR ABLESTAR R/B now!
10-day predictions


NORAD ID: 447
Int'l Code: 1962-060B
Perigee: 1,070.8 km
Apogee: 1,169.2 km
Inclination: 50.1 °
Period: 107.5 minutes
Semi major axis: 7490 km
RCS: 3.8837 m2 (large)
Launch date: October 31, 1962
Source: United States (US)
Launch site: AIR FORCE EASTERN TEST RANGE (AFETR)

Note: This is a ROCKET BODY
aabbcc
Your satellite tracking list
Your tracking list is empty




NASA's NSSDC Master Catalog

Two Line Element Set (TLE):
1   447U 62060B   19326.17991413 -.00000132  00000-0 -84801-5 0  9999
2   447  50.1301 250.5603 0065647 204.5315 258.9151 13.39041852791066
Source of the keplerian elements: AFSPC